Location: San Pelegr�n
(42.1868°N, 0.0079°E)
Time: 15:12:16
(UTC+00:00)

COSMO-SKYMED 1 - Pass Details

Date: 24 January 2020
Orbit: 621 x 623 km, 97.9° (Epoch: 24 February)

Event Time Altitude Azimuth Distance (km) Brightness Sun altitude
Rises 18:09:17 0° 12° (NNE) 2,912 5.7 -12.3°
Reaches altitude 10° 18:11:29 10° 12° (NNE) 2,000 4.9 -12.7°
Maximum altitude 18:15:50 87° 288° (WNW) 629 2.6 -13.4°
Drops below altitude 10° 18:20:10 10° 195° (SSW) 1,984 5.5 -14.2°
Sets 18:22:20 0° 195° (SSW) 2,885 6.4 -14.6°
